Weather History for Sparta, TN

Change the Weather History Date:

Thursday, September 26, 2013

  Actual Average (KCSV) Record (KCSV)
Temperature  
Mean Temperature 63 °F 63 °F  
Max Temperature 75 °F 74 °F 88 °F (1998)
Min Temperature 51 °F 53 °F 35 °F (2001)
Degree Days  
Heating Degree Days 2    
Month to date heating degree days  
Since 1 July heating degree days  
Cooling Degree Days 0    
Month to date cooling degree days  
Year to date cooling degree days  
Growing Degree Days 13 (Base 50)    
Moisture  
Dew Point 60 °F    
Average Humidity 85    
Maximum Humidity 100    
Minimum Humidity 57    
Precipitation  
Precipitation 0.00 in 0.13 in 2.25 in (1972)
Month to date precipitation 3.35  
Year to date precipitation 41.47  
Sea Level Pressure  
Sea Level Pressure 29.99 in    
Wind  
Wind Speed 2 mph (NNE)    
Max Wind Speed 9 mph    
Max Gust Speed -    
Visibility 7 miles    
Events      
T = Trace of Precipitation, MM = Missing Value Source: NWS Daily Summary

Daily Weather History Graph

Daily Weather History Graph

Search for Another Location

Airport:

Trip Planner

Search our weather history database for the weather conditions in past years. The results will help you decide how hot, cold, wet, or windy it might be!

Date:

Astronomy

Sep. 26, 2013 Rise Set
Actual Time 6:33 AM CDT 6:32 PM CDT
Civil Twilight 6:07 AM CDT 6:58 PM CDT
Nautical Twilight 5:38 AM CDT 7:28 PM CDT
Astronomical Twilight 5:07 AM CDT 7:58 PM CDT
Moon 11:39 PM CDT (9/26) 1:15 PM CDT (9/26)
Length of Visible Light 12h 50m
Length of Day
11h 59m
Waning Gibbous, 54% of the Moon is Illuminated
Sep 26
Waning Gibbous
Sep 26
Last Quarter
Oct 4
New
Oct 11
First Quarter
Oct 18
Full

Hourly Weather History & Observations

Time (CDT) Temp. Dew Point Humidity Pressure Visibility Wind Dir Wind Speed Gust Speed Precip Events Conditions
12:35 AM 62.6 °F 62.6 °F 100% 29.90 in 2.0 mi Calm Calm - N/A   Overcast
12:55 AM 62.6 °F 60.8 °F 94% 29.90 in 0.5 mi Calm Calm - N/A   Overcast
1:15 AM 60.8 °F 60.8 °F 100% 29.90 in 0.2 mi Calm Calm - N/A   Overcast
1:35 AM 60.8 °F 60.8 °F 100% 29.91 in 0.2 mi Calm Calm - N/A   Overcast
1:55 AM 60.8 °F 60.8 °F 100% 29.91 in 0.2 mi Calm Calm - N/A   Overcast
2:15 AM 59.0 °F 57.2 °F 94% 29.91 in 0.2 mi Calm Calm - N/A   Overcast
2:35 AM 60.8 °F 59.0 °F 94% 29.91 in 0.5 mi ENE 5.8 mph - N/A   Overcast
2:55 AM 60.8 °F 60.8 °F 100% 29.91 in 0.2 mi Calm Calm - N/A   Overcast
3:15 AM 60.8 °F 60.8 °F 100% 29.91 in 0.2 mi NE 3.5 mph - N/A   Overcast
3:35 AM 60.8 °F 60.8 °F 100% 29.91 in 7.0 mi ENE 4.6 mph - N/A   Overcast
3:55 AM 62.6 °F 60.8 °F 94% 29.91 in 10.0 mi Calm Calm - N/A   Overcast
4:15 AM 62.6 °F 60.8 °F 94% 29.91 in 10.0 mi Calm Calm - N/A   Overcast
4:35 AM 60.8 °F 60.8 °F 100% 29.92 in 1.2 mi Calm Calm - N/A   Mostly Cloudy
4:55 AM 59.0 °F 57.2 °F 94% 29.92 in 0.2 mi Calm Calm - N/A   Overcast
5:15 AM 60.8 °F 60.8 °F 100% 29.93 in 0.5 mi ENE 3.5 mph - N/A   Overcast
5:35 AM 60.8 °F 59.0 °F 94% 29.94 in 0.8 mi Calm Calm - N/A   Overcast
5:55 AM 57.2 °F 57.2 °F 100% 29.95 in 0.2 mi Calm Calm - N/A   Mostly Cloudy
6:15 AM 55.4 °F 55.4 °F 100% 29.96 in 0.2 mi Calm Calm - N/A   Mostly Cloudy
6:35 AM 55.4 °F 55.4 °F 100% 29.96 in 0.2 mi Calm Calm - N/A   Unknown
6:55 AM 57.2 °F 55.4 °F 94% 29.97 in 0.5 mi Calm Calm - N/A   Unknown
7:15 AM 59.0 °F 59.0 °F 100% 29.98 in 2.0 mi Calm Calm - N/A   Clear
7:35 AM 60.8 °F 60.8 °F 100% 29.98 in 6.0 mi Calm Calm - N/A   Clear
7:55 AM 62.6 °F 62.6 °F 100% 29.99 in 10.0 mi Calm Calm - N/A   Clear
8:15 AM 64.4 °F 62.6 °F 94% 29.99 in 10.0 mi Calm Calm - N/A   Clear
8:35 AM 64.4 °F 62.6 °F 94% 30.00 in 10.0 mi Calm Calm - N/A   Clear
8:55 AM 66.2 °F 62.6 °F 88% 30.00 in 10.0 mi Calm Calm - N/A   Partly Cloudy
9:15 AM 68.0 °F 62.6 °F 83% 30.01 in 10.0 mi Calm Calm - N/A   Scattered Clouds
9:35 AM 69.8 °F 64.4 °F 83% 30.01 in 10.0 mi North 5.8 mph - N/A   Mostly Cloudy
9:55 AM 68.0 °F 64.4 °F 88% 30.02 in 10.0 mi North 4.6 mph - N/A   Scattered Clouds
10:15 AM 69.8 °F 64.4 °F 83% 30.02 in 10.0 mi North 4.6 mph - N/A   Partly Cloudy
10:35 AM 69.8 °F 64.4 °F 83% 30.02 in 10.0 mi NNE 5.8 mph - N/A   Partly Cloudy
10:55 AM 69.8 °F 62.6 °F 78% 30.02 in 10.0 mi Calm Calm - N/A   Partly Cloudy
11:15 AM 71.6 °F 64.4 °F 78% 30.02 in 10.0 mi North 5.8 mph - N/A   Mostly Cloudy
11:35 AM 73.4 °F 64.4 °F 73% 30.02 in 10.0 mi North 4.6 mph - N/A   Mostly Cloudy
11:55 AM 71.6 °F 64.4 °F 78% 30.02 in 10.0 mi NW 5.8 mph - N/A   Mostly Cloudy
12:15 PM 73.4 °F 64.4 °F 73% 30.02 in 10.0 mi NNE 6.9 mph - N/A   Scattered Clouds
12:35 PM 73.4 °F 64.4 °F 73% 30.01 in 10.0 mi Variable 5.8 mph - N/A   Partly Cloudy
12:55 PM 75.2 °F 62.6 °F 65% 30.01 in 10.0 mi Variable 6.9 mph - N/A   Partly Cloudy
1:15 PM 73.4 °F 64.4 °F 73% 30.00 in 10.0 mi North 8.1 mph - N/A   Partly Cloudy
1:35 PM 73.4 °F 62.6 °F 69% 30.00 in 10.0 mi Variable 6.9 mph - N/A   Partly Cloudy
1:55 PM 75.2 °F 62.6 °F 65% 30.00 in 10.0 mi Variable 5.8 mph - N/A   Partly Cloudy
2:15 PM 75.2 °F 62.6 °F 65% 30.00 in 10.0 mi Variable 5.8 mph - N/A   Clear
2:35 PM 75.2 °F 60.8 °F 61% 30.00 in 10.0 mi NNE 6.9 mph - N/A   Clear
2:55 PM 75.2 °F 60.8 °F 61% 29.99 in 10.0 mi Variable 6.9 mph - N/A   Clear
3:15 PM 75.2 °F 60.8 °F 61% 29.99 in 10.0 mi NNE 9.2 mph - N/A   Clear
3:35 PM 75.2 °F 60.8 °F 61% 29.99 in 10.0 mi Variable 5.8 mph - N/A   Clear
3:55 PM 75.2 °F 60.8 °F 61% 29.99 in 10.0 mi Variable 4.6 mph - N/A   Clear
4:15 PM 75.2 °F 60.8 °F 61% 29.99 in 10.0 mi North 6.9 mph - N/A   Clear
4:35 PM 75.2 °F 59.0 °F 57% 30.00 in 10.0 mi Variable 3.5 mph - N/A   Clear
4:55 PM 73.4 °F 57.2 °F 57% 30.00 in 10.0 mi NNE 3.5 mph - N/A   Clear
5:15 PM 73.4 °F 57.2 °F 57% 30.00 in 10.0 mi North 3.5 mph - N/A   Clear
5:35 PM 73.4 °F 57.2 °F 57% 30.01 in 10.0 mi Calm Calm - N/A   Clear
5:55 PM 71.6 °F 57.2 °F 60% 30.01 in 10.0 mi Calm Calm - N/A   Clear
6:15 PM 68.0 °F 59.0 °F 73% 30.02 in 10.0 mi NNE 3.5 mph - N/A   Clear
6:35 PM 64.4 °F 57.2 °F 77% 30.02 in 10.0 mi NNE 3.5 mph - N/A   Clear
6:55 PM 60.8 °F 57.2 °F 88% 30.02 in 10.0 mi Calm Calm - N/A   Clear
7:15 PM 60.8 °F 57.2 °F 88% 30.02 in 10.0 mi Calm Calm - N/A   Clear
7:35 PM 57.2 °F 55.4 °F 94% 30.02 in 10.0 mi Calm Calm - N/A   Clear
7:55 PM 57.2 °F 55.4 °F 94% 30.03 in 10.0 mi Calm Calm - N/A   Clear
8:15 PM 60.8 °F 57.2 °F 88% 30.04 in 10.0 mi NE 3.5 mph - N/A   Clear
8:35 PM 60.8 °F 57.2 °F 88% 30.04 in 10.0 mi Calm Calm - N/A   Clear
8:55 PM 59.0 °F 57.2 °F 94% 30.05 in 9.0 mi Calm Calm - N/A   Clear
9:15 PM 57.2 °F 57.2 °F 100% 30.04 in 10.0 mi Calm Calm - N/A   Clear
9:35 PM 55.4 °F 55.4 °F 100% 30.05 in 10.0 mi Calm Calm - N/A   Clear
9:55 PM 55.4 °F 55.4 °F 100% 30.05 in 6.0 mi Calm Calm - N/A   Clear
10:15 PM 53.6 °F 51.8 °F 94% 30.05 in 1.0 mi Calm Calm - N/A   Unknown
10:35 PM 53.6 °F 53.6 °F 100% 30.05 in 6.0 mi Calm Calm - N/A   Clear
10:55 PM 53.6 °F 53.6 °F 100% 30.06 in 7.0 mi Calm Calm - N/A   Clear
11:15 PM 51.8 °F 51.8 °F 100% 30.06 in 7.0 mi Calm Calm - N/A   Clear
11:35 PM 51.8 °F 51.8 °F 100% 30.06 in 6.0 mi Calm Calm - N/A   Clear
11:55 PM 51.8 °F 51.8 °F 100% 30.06 in 1.0 mi Calm Calm - N/A   Unknown